Total_Precipitation_Accumulation
0.00 0.00 0.00 0.00 0.00 0.00 0.00 0.00 0.00 0.00 0.00 0.00 0.00 0.00 0.00 0.00 0.00 0.00 0.00 0.00 0.00 0.00 0.00 0.00 0.00 0.00 0.00 0.00 0.00 0.00 0.00 0.00
0.00 0.00 0.00 0.00 0.00 0.00 0.00 0.00 0.00 0.00 0.00 0.00 0.00 0.00 0.00 0.00 0.00 0.00 0.00 0.02 0.05 0.04 0.04 0.03 0.01 0.00 0.01 0.00 0.00 0.00 0.00 0.00
0.00 0.00 0.00 0.00 0.00 0.00 0.00 0.01 0.03 0.00 0.00 0.00 0.00 0.00 0.00 0.00 0.00 0.00 0.02 0.05 0.06 0.04 0.07 0.15 0.16 0.11 0.02 0.04 0.02 0.00 0.00 0.00
0.00 0.00 0.00 0.00 0.00 0.00 0.02 0.02 0.01 0.02 0.04 0.01 0.00 0.00 0.01 0.00 0.02 0.01 0.04 0.04 0.07 0.07 0.07 0.07 0.12 0.03 0.02 0.08 0.10 0.06 0.02 0.01
0.00 0.00 0.00 0.00 0.00 0.00 0.01 0.04 0.08 0.10 0.11 0.10 0.10 0.12 0.13 0.11 0.21 0.16 0.06 0.02 0.07 0.16 0.13 0.16 0.16 0.16 0.24 0.18 0.04 0.01 0.00 0.00
0.00 0.00 0.00 0.00 0.00 0.01 0.01 0.01 0.02 0.08 0.23 0.36 0.32 0.31 0.24 0.28 0.27 0.34 0.35 0.43 0.35 0.46 0.28 0.28 0.27 0.30 0.33 0.25 0.12 0.02 0.04 0.02
0.00 0.00 0.00 0.02 0.03 0.03 0.07 0.09 0.13 0.17 0.25 0.32 0.31 0.32 0.32 0.39 0.32 0.31 0.50 0.49 0.46 0.51 0.47 0.47 0.48 0.39 0.34 0.31 0.20 0.14 0.24 0.26
0.00 0.00 0.02 0.05 0.05 0.06 0.09 0.11 0.11 0.13 0.11 0.11 0.10 0.15 0.18 0.20 0.24 0.25 0.27 0.34 0.56 0.52 0.50 0.62 0.55 0.59 0.54 0.55 0.58 0.67 0.60 0.58
0.00 0.00 0.02 0.03 0.03 0.04 0.05 0.05 0.05 0.08 0.13 0.16 0.14 0.18 0.16 0.15 0.19 0.16 0.18 0.31 0.54 0.52 0.73 0.80 0.71 0.61 0.51 0.57 0.59 0.67 0.93 1.16
0.00 0.00 0.00 0.00 0.01 0.02 0.04 0.05 0.04 0.06 0.06 0.09 0.11 0.16 0.16 0.16 0.16 0.18 0.13 0.29 0.39 0.29 0.39 0.66 0.67 0.56 0.52 0.71 0.89 1.04 1.10 1.32
0.00 0.00 0.00 0.00 0.00 0.00 0.01 0.01 0.01 0.02 0.01 0.01 0.01 0.03 0.07 0.10 0.14 0.17 0.26 0.39 0.40 0.46 0.53 0.43 0.43 0.40 0.51 0.69 0.95 1.21 1.37 1.37
0.00 0.00 0.00 0.00 0.00 0.00 0.00 0.00 0.00 0.00 0.00 0.01 0.01 0.00 0.00 0.01 0.01 0.05 0.11 0.21 0.37 0.58 0.74 0.56 0.52 0.61 0.84 0.81 0.82 0.95 1.00 1.13
0.00 0.00 0.00 0.00 0.00 0.00 0.00 0.00 0.00 0.00 0.00 0.00 0.00 0.00 0.00 0.00 0.00 0.00 0.00 0.02 0.09 0.25 0.32 0.39 0.39 0.80 1.64 1.65 1.27 1.30 1.64 1.91
0.00 0.00 0.00 0.00 0.00 0.00 0.00 0.00 0.00 0.00 0.00 0.00 0.00 0.00 0.00 0.00 0.00 0.00 0.00 0.00 0.00 0.01 0.02 0.07 0.18 0.34 0.50 0.77 0.92 0.68 0.42 0.27
0.00 0.00 0.00 0.00 0.00 0.00 0.00 0.00 0.00 0.00 0.00 0.00 0.00 0.00 0.00 0.00 0.00 0.00 0.00 0.00 0.00 0.00 0.00 0.01 0.03 0.07 0.21 0.29 0.21 0.11 0.07 0.10
0.00 0.00 0.00 0.00 0.00 0.00 0.00 0.00 0.00 0.00 0.00 0.00 0.00 0.00 0.00 0.00 0.00 0.00 0.00 0.00 0.01 0.01 0.00 0.01 0.02 0.03 0.02 0.09 0.11 0.09 0.08 0.05
0.01 0.02 0.03 0.04 0.04 0.02 0.01 0.01 0.00 0.00 0.00 0.00 0.00 0.00 0.00 0.00 0.00 0.00 0.00 0.01 0.01 0.01 0.01 0.01 0.01 0.02 0.03 0.03 0.06 0.08 0.08 0.10
0.00 0.01 0.01 0.02 0.04 0.05 0.04 0.03 0.02 0.01 0.00 0.00 0.00 0.00 0.00 0.00 0.00 0.00 0.00 0.00 0.01 0.01 0.01 0.01 0.02 0.02 0.03 0.03 0.04 0.05 0.04 0.08
0.07 0.05 0.03 0.01 0.00 0.01 0.02 0.03 0.04 0.04 0.03 0.01 0.01 0.01 0.00 0.00 0.00 0.00 0.00 0.00 0.00 0.01 0.00 0.01 0.01 0.03 0.02 0.02 0.04 0.03 0.04 0.05
0.04 0.05 0.06 0.04 0.03 0.02 0.01 0.01 0.00 0.01 0.01 0.01 0.02 0.02 0.01 0.01 0.01 0.01 0.00 0.00 0.01 0.00 0.01 0.01 0.02 0.02 0.03 0.03 0.03 0.04 0.05 0.06